Theta_e
313 316 316 316 315 314 313 312 312 312 312 312 312 313 313 312 311 312 311 311 310 309 310 311 310 310 310 309 310 309 309 310 310 309 310 310 309 309 310 310 309 309 310 310 308 309 308 308 308 307 307 306 306 306 306 306 306 305 305 304 303 303 302 301 300 300 300 299 298 297 296 296 296 295 295 294 295 295 295 295 295 294 294 294 294 294
311 314 315 315 314 313 312 312 312 312 312 312 313 313 313 312 311 310 311 311 309 309 311 312 311 309 309 310 309 310 310 310 310 310 310 310 310 311 310 310 310 310 310 310 310 309 307 308 308 307 307 306 306 306 306 306 306 305 304 304 304 302 301 301 301 300 300 300 300 299 298 297 296 295 295 295 295 295 295 294 294 294 294 294 294 294
313 313 313 312 312 312 313 313 312 312 312 313 313 313 313 313 312 312 311 312 311 311 314 315 312 309 310 311 310 310 310 310 310 310 311 311 311 311 311 311 311 311 311 311 311 310 307 307 307 307 307 306 306 307 306 306 306 305 304 304 303 302 301 301 300 300 300 300 300 300 299 297 296 296 295 295 295 295 295 294 294 294 294 294 294 294
316 316 314 311 311 311 312 313 312 312 312 313 314 313 314 312 313 313 313 315 314 311 313 314 311 310 311 311 310 310 310 310 311 311 311 312 311 312 312 312 311 311 312 311 311 311 308 307 306 305 306 306 306 306 305 305 305 304 304 304 303 302 302 301 300 300 300 300 299 298 298 297 296 295 295 295 294 294 294 294 294 294 293 293 293 294
315 318 315 312 311 312 312 312 312 313 312 314 314 313 313 313 313 312 313 316 314 313 317 314 311 314 315 315 315 312 309 310 310 310 311 310 310 311 311 311 311 312 312 311 311 311 310 309 305 304 305 305 304 305 305 305 305 305 305 304 303 302 302 301 300 300 299 299 298 297 297 296 296 295 294 294 294 294 294 294 294 294 293 293 293 293
313 315 313 313 314 313 313 312 314 315 313 313 314 313 313 312 312 312 313 313 313 318 318 314 314 317 318 318 321 320 315 313 312 310 311 311 310 310 310 311 312 312 311 312 311 310 310 308 304 304 305 304 304 305 306 306 305 305 304 304 303 302 301 301 300 299 299 298 298 297 296 296 295 294 294 294 294 294 294 294 294 294 294 294 293 293
313 313 312 314 316 315 313 313 316 315 312 314 317 318 314 312 313 314 313 312 316 321 315 312 316 318 316 317 322 323 321 321 318 314 313 313 311 310 312 314 313 312 311 312 312 310 310 309 307 306 305 304 305 306 306 305 305 305 304 304 303 302 301 300 300 299 299 298 298 297 297 296 296 295 295 295 295 295 294 294 294 295 295 295 294 294
315 314 312 313 313 315 314 313 315 313 313 315 317 320 319 316 315 314 313 313 317 319 314 314 318 317 316 316 318 319 318 320 318 315 313 311 311 313 314 315 314 313 311 312 313 310 311 313 309 306 305 306 306 306 306 305 305 304 304 303 303 302 301 300 300 299 299 299 298 297 297 297 297 297 296 296 295 295 294 294 294 294 294 294 294 294
315 315 316 314 313 316 316 315 317 313 313 316 314 315 318 316 315 313 314 316 315 316 316 316 317 319 319 316 317 316 314 318 318 316 313 311 313 315 316 316 315 313 311 311 311 311 315 313 306 304 305 306 306 306 306 305 305 304 303 303 302 301 301 300 300 299 299 299 298 298 297 297 297 297 297 296 295 295 294 294 294 293 293 294 294 294
313 315 318 318 316 316 315 316 320 316 314 316 314 315 317 318 317 316 317 318 318 318 318 317 316 319 320 318 320 317 315 322 321 315 313 312 314 315 316 317 315 312 311 311 309 312 316 308 303 305 305 305 305 305 305 304 304 303 303 302 301 301 300 299 299 299 299 298 298 298 297 297 297 296 296 295 295 294 294 293 293 293 293 293 293 293
311 310 311 315 316 316 316 315 314 315 315 313 314 317 320 321 318 318 320 318 318 320 319 319 318 317 319 320 323 322 319 322 320 317 318 318 320 319 316 314 312 311 311 313 313 316 313 303 302 305 304 304 305 304 305 304 303 303 302 302 301 300 300 299 299 299 298 298 298 298 297 297 297 296 296 295 295 294 294 293 292 292 292 292 293 293
311 309 312 316 317 316 316 313 309 311 312 312 317 320 319 321 318 318 322 319 318 321 320 319 316 315 318 318 320 322 319 317 317 320 323 324 327 325 317 311 310 310 311 313 315 317 315 309 308 306 302 303 305 304 305 304 303 302 302 301 300 299 299 298 298 298 298 298 298 298 297 297 297 296 296 295 295 294 293 293 293 292 292 292 292 292
315 314 313 314 314 313 314 315 313 311 311 312 318 318 316 320 320 318 322 320 319 321 317 314 314 314 316 315 317 318 316 317 315 316 319 323 326 323 316 313 312 313 314 314 315 317 316 315 315 310 302 302 303 304 304 303 303 302 301 301 300 299 299 298 297 298 297 297 298 297 297 297 297 296 296 296 295 294 294 294 293 292 292 291 291 292
319 317 312 310 312 314 314 315 315 316 314 312 316 318 316 319 320 320 324 320 319 320 315 312 314 316 318 318 319 316 313 316 315 314 316 317 317 316 315 316 318 320 319 315 316 318 315 315 318 311 301 301 303 303 303 303 303 302 301 300 299 299 298 298 297 297 297 297 297 297 297 297 297 296 296 296 295 295 294 294 293 293 292 292 292 293
318 319 317 314 316 315 312 313 317 320 317 311 315 319 318 321 323 323 326 322 320 321 314 309 315 321 321 321 322 318 315 319 320 317 314 312 314 316 317 321 324 324 320 314 314 315 314 315 314 305 301 302 304 303 303 303 302 302 301 300 299 299 298 298 297 297 297 297 297 297 297 297 297 297 296 296 296 296 295 295 294 293 293 293 294 293
316 319 319 314 313 312 312 315 318 318 317 313 315 318 316 320 323 319 321 322 319 319 314 313 318 321 319 317 317 317 316 315 317 315 312 313 319 321 322 325 327 324 319 315 315 315 315 314 305 299 303 305 304 304 303 303 302 302 302 301 300 299 298 298 297 297 297 296 296 296 296 296 296 296 296 296 296 296 295 295 294 294 294 294 294 293
316 320 318 311 311 312 312 314 314 314 317 314 314 318 316 316 318 316 320 321 317 317 317 318 320 318 318 317 316 318 319 316 316 317 315 318 323 323 324 328 327 322 318 315 316 314 314 314 306 301 304 305 305 306 305 304 304 302 302 302 300 299 298 298 297 297 297 296 296 296 296 296 296 296 296 296 296 295 295 294 294 294 294 294 294 293
316 317 317 313 312 312 308 310 313 313 314 315 317 318 314 313 315 316 319 321 318 318 318 318 319 317 319 319 317 320 323 321 320 319 318 318 320 322 326 326 320 316 315 315 314 312 312 315 309 303 303 305 305 306 306 306 305 303 302 302 301 300 299 298 297 296 296 296 296 296 296 296 296 296 296 296 296 295 294 294 294 294 294 294 294 293
316 314 318 317 314 313 310 310 314 312 309 312 316 315 313 316 317 317 319 320 319 319 320 319 319 318 318 319 317 317 318 318 318 319 319 317 318 322 326 322 315 313 314 313 312 311 311 311 307 302 303 305 305 305 305 305 304 303 303 302 301 301 300 299 297 296 296 296 296 296 296 295 295 295 295 295 295 295 294 294 294 294 293 293 293 292
315 314 318 316 312 314 315 314 318 317 311 310 312 311 313 315 315 316 319 320 319 320 321 321 321 320 318 317 317 316 317 319 319 319 319 319 320 323 322 318 315 314 314 312 311 310 309 307 304 302 302 303 303 303 303 303 303 303 303 301 300 300 300 298 297 297 296 296 296 295 295 295 295 295 295 295 295 294 295 294 294 294 293 293 293 292
316 316 317 316 315 316 318 318 320 321 316 313 313 314 313 313 315 316 316 317 318 317 319 320 320 320 320 319 317 317 320 320 318 317 316 318 321 319 315 314 314 314 312 310 308 306 304 303 301 299 299 300 300 300 300 301 301 302 302 301 300 299 299 298 298 297 297 296 296 296 295 295 295 295 295 295 294 294 294 294 294 294 294 293 293 292
319 319 317 317 319 319 320 321 319 318 317 316 315 316 315 315 317 317 316 317 317 316 318 319 319 321 324 324 318 315 317 317 317 317 316 318 319 316 313 312 311 309 307 304 302 300 299 298 297 296 296 297 297 297 298 298 299 299 300 300 300 299 298 298 298 298 297 297 296 296 296 295 295 295 295 294 294 294 294 294 294 294 293 293 293 293
319 319 319 318 318 318 318 318 317 316 315 315 315 315 315 315 316 317 318 318 318 317 316 318 319 320 323 324 319 317 316 314 314 315 316 318 317 314 311 308 305 303 300 298 297 297 296 295 294 294 294 295 295 295 296 296 297 297 298 298 298 299 299 299 298 297 297 297 296 296 296 295 295 295 294 294 294 294 294 294 294 293 293 293 293 292
314 315 317 317 317 318 318 318 316 314 314 316 316 315 315 315 316 317 316 317 318 318 318 320 321 321 326 327 319 316 316 314 313 313 315 315 311 308 305 301 300 298 296 296 295 294 294 293 293 293 293 294 294 294 295 295 296 296 296 297 297 297 298 298 298 297 297 296 296 296 296 295 295 295 295 294 294 294 294 294 294 293 293 293 292 292
313 314 316 317 318 318 319 319 316 314 315 317 317 317 315 314 316 316 315 316 317 317 318 320 319 320 327 328 319 316 317 316 314 309 305 304 302 300 298 297 296 295 294 294 294 293 293 293 293 293 292 293 293 294 294 295 295 295 295 296 296 296 296 297 297 298 297 297 297 296 296 295 295 295 295 295 294 295 294 294 293 293 292 292 291 291
312 314 316 317 319 319 317 318 316 316 317 316 315 317 316 315 316 316 316 316 317 317 318 318 318 317 320 321 319 318 315 313 309 301 296 297 297 296 295 295 294 294 293 293 293 293 293 292 293 292 292 292 293 293 294 294 294 295 295 295 295 295 295 295 296 296 297 297 297 296 296 295 295 295 295 295 295 295 294 294 293 293 292 292 291 291
310 313 315 316 317 317 316 316 315 315 316 315 314 315 315 315 314 314 315 316 316 317 316 317 317 316 315 316 314 311 307 305 302 296 294 295 294 294 294 293 293 293 292 292 292 292 292 292 292 292 291 292 292 292 293 294 293 294 294 294 294 294 294 294 294 295 296 296 296 296 296 295 295 295 295 295 295 295 294 294 293 293 292 292 291 291
309 310 312 313 313 314 314 313 313 313 313 313 314 314 314 314 313 313 314 314 314 316 316 316 315 314 316 314 306 300 298 298 297 294 293 293 293 293 293 292 293 292 292 292 292 292 291 291 291 291 291 291 291 292 292 293 293 293 292 293 293 293 294 294 294 294 294 295 295 295 296 296 296 295 295 295 295 294 294 294 293 293 293 292 291 291
307 307 309 310 310 311 310 309 310 310 311 311 312 312 313 313 313 313 313 313 313 314 315 314 314 314 315 308 299 295 295 295 295 294 292 292 292 292 292 292 292 292 292 292 291 291 291 291 291 291 290 290 291 291 291 292 292 292 291 291 292 293 293 293 293 293 293 293 294 294 295 296 296 295 295 295 294 294 294 294 293 293 292 292 291 291
306 307 308 308 307 306 306 307 308 308 309 309 309 311 311 311 312 312 311 312 312 313 313 312 313 313 308 299 294 294 293 292 293 293 292 291 292 292 292 292 292 292 292 292 291 291 291 291 291 291 290 290 290 290 291 291 292 291 291 291 291 292 292 292 293 293 293 293 292 293 293 294 294 295 295 294 294 294 294 293 293 293 292 292 291 291
306 306 306 304 304 304 304 304 305 306 306 307 307 308 309 309 309 309 309 309 309 310 310 310 312 310 300 293 293 294 292 292 293 293 292 292 292 292 292 292 292 292 292 292 291 291 291 291 291 291 290 290 290 290 290 291 291 291 290 290 290 291 291 292 292 292 292 292 292 292 292 292 293 293 293 294 294 294 293 293 293 292 292 291 291 290
302 301 301 302 302 302 302 303 302 302 303 304 304 304 304 305 305 305 305 306 306 307 309 310 311 305 296 292 293 292 292 292 292 292 292 292 292 292 292 292 292 292 292 292 291 291 291 291 290 291 290 290 290 290 290 291 291 291 290 289 290 290 290 291 291 291 291 291 292 292 291 291 291 291 292 293 293 293 293 293 292 292 291 291 290 290
299 299 299 300 300 300 300 301 300 301 301 300 300 302 303 302 303 303 304 304 302 303 306 306 303 297 293 293 293 292 292 292 291 292 292 292 292 292 292 292 292 292 292 292 292 291 291 290 290 290 290 290 290 290 290 291 291 290 290 289 290 290 290 290 290 290 290 290 291 291 291 290 290 290 291 291 292 293 292 292 292 291 291 290 290 289
297 298 298 298 298 298 298 299 299 299 299 299 300 303 304 303 304 304 302 298 297 299 299 298 296 294 294 294 293 292 292 291 291 292 292 292 293 293 293 293 292 292 292 292 291 291 290 290 290 290 290 290 290 290 290 290 291 290 289 289 289 290 289 290 290 289 289 289 290 290 290 290 289 289 290 290 291 291 291 291 291 291 290 290 289 288
295 296 296 297 297 296 297 298 298 297 298 300 300 300 299 300 301 299 296 294 295 296 295 294 294 294 293 293 293 292 292 291 292 292 291 292 294 293 293 293 292 292 292 291 291 291 290 290 289 289 289 290 290 290 289 290 290 290 289 289 289 289 289 289 289 289 289 289 289 290 290 290 289 289 289 289 290 290 290 290 290 290 290 289 288 288
295 295 295 296 297 297 298 298 298 297 299 301 300 297 297 298 298 297 296 295 294 295 294 293 294 294 293 293 293 292 292 292 291 292 292 293 294 294 293 293 292 292 292 292 291 291 290 290 289 289 289 289 290 289 289 289 289 289 289 288 288 289 289 289 289 289 288 288 288 289 290 290 289 289 289 289 289 289 289 289 289 289 289 288 288 287
295 295 296 296 297 298 298 298 299 298 299 301 300 297 296 296 296 297 298 295 292 292 294 294 294 295 294 293 292 292 292 292 291 292 293 294 295 295 293 293 292 292 292 291 291 291 290 289 289 288 288 289 289 289 288 288 289 289 288 288 288 288 288 288 289 288 288 287 288 288 289 289 289 289 289 288 288 288 288 288 288 288 288 287 287 286
295 296 296 296 297 299 299 299 300 299 299 300 298 296 295 295 295 296 296 295 291 289 292 294 295 295 294 293 293 292 292 291 289 290 293 294 295 295 294 293 292 291 291 291 290 290 290 289 289 288 288 289 289 288 288 288 288 288 287 287 287 288 288 288 288 288 288 287 287 288 288 288 289 289 289 288 287 287 287 287 287 287 287 286 286 285
296 296 297 297 298 299 300 300 300 300 300 299 297 296 295 294 295 295 296 297 293 288 291 295 295 295 294 293 292 292 292 291 289 289 292 294 294 294 293 293 292 290 290 290 290 289 289 288 288 288 288 288 288 287 287 287 287 287 287 287 287 287 287 287 287 287 287 287 287 287 288 288 288 289 289 288 288 287 287 287 286 286 286 285 285 285
296 295 296 297 298 299 299 299 298 297 299 299 296 295 294 293 293 295 296 296 292 289 292 295 295 295 294 292 292 293 293 292 289 289 290 291 292 293 292 292 291 290 289 289 289 288 288 288 287 287 287 287 287 287 287 286 286 286 286 286 286 286 286 286 287 287 286 287 287 287 287 287 287 288 288 288 288 287 286 286 286 285 285 285 285 284
295 295 294 295 296 296 296 296 295 295 297 299 297 295 294 292 291 293 294 292 290 291 295 296 295 295 294 293 292 292 292 291 290 290 290 291 291 292 291 290 290 289 288 288 287 287 287 287 286 286 287 287 287 286 286 286 285 285 285 285 285 285 285 285 286 285 285 286 286 286 286 286 287 287 287 288 288 287 286 285 285 284 284 284 284 283
293 293 293 294 294 293 294 294 293 293 294 296 296 295 292 292 293 294 293 290 290 291 293 294 294 294 293 293 292 291 291 291 290 290 291 291 291 291 291 289 288 287 286 286 286 286 286 285 285 285 286 286 286 285 285 285 285 284 284 284 284 284 284 284 284 284 285 285 286 286 285 285 286 286 286 287 287 287 286 285 284 284 283 283 283 282
293 293 293 294 294 292 292 293 293 294 293 293 294 293 292 293 295 294 291 290 291 292 292 293 293 292 292 292 292 291 291 290 290 290 290 290 290 290 289 287 286 285 284 284 284 284 284 284 284 284 284 284 284 284 283 283 283 283 283 283 283 283 283 283 283 283 284 284 285 284 285 285 285 285 285 286 286 286 286 285 284 283 282 282 281 281
293 292 291 292 293 292 291 292 294 297 296 293 291 292 293 293 292 291 290 290 291 292 292 291 290 290 291 292 291 291 290 290 289 289 290 290 289 287 286 284 283 283 283 283 283 282 282 282 282 282 283 283 282 282 282 282 282 282 282 282 282 282 282 281 281 282 282 283 283 283 284 284 284 284 284 285 285 285 285 285 284 283 282 281 280 280
293 293 292 291 292 292 291 292 294 295 294 292 291 291 291 291 290 290 290 290 291 291 290 289 288 289 290 290 290 290 290 289 289 289 288 287 286 285 284 283 282 282 281 281 281 281 281 281 281 281 281 281 281 280 280 280 280 280 280 280 280 280 280 280 280 281 281 281 282 282 283 283 283 283 283 284 284 284 284 284 283 282 281 281 280 279
291 292 291 290 290 291 291 291 290 290 291 291 291 290 290 290 290 290 289 289 289 289 288 288 288 288 289 289 289 289 289 288 287 286 285 284 283 282 282 281 281 281 280 280 280 280 279 279 279 279 279 279 279 279 279 279 279 279 279 279 279 279 279 279 279 279 279 280 280 280 281 281 281 282 282 283 283 283 284 284 283 282 281 280 279 279
290 290 290 289 290 290 290 290 290 290 290 290 290 290 290 290 289 289 288 288 288 288 287 287 287 287 287 287 286 286 285 285 283 282 282 281 281 281 281 280 280 279 279 279 279 278 278 278 277 277 277 277 278 278 277 277 277 277 277 277 277 277 277 277 277 277 277 278 278 278 278 278 279 280 281 282 282 283 283 283 282 282 281 280 279 279
290 290 290 290 290 290 289 289 290 290 290 289 289 289 289 289 289 288 288 287 287 286 285 284 284 284 283 282 282 281 281 280 280 280 280 279 279 279 279 279 278 278 278 278 277 277 277 276 276 276 276 276 276 276 276 276 276 276 276 276 276 276 275 275 275 275 275 275 275 275 275 276 277 279 280 281 282 282 282 282 282 281 281 281 281 280
290 290 290 290 290 289 289 290 289 289 289 289 289 289 289 288 288 287 286 285 284 283 282 280 280 279 279 279 279 279 279 278 278 278 278 277 277 277 277 277 277 276 276 276 276 276 275 275 275 275 275 275 275 275 275 275 275 275 275 274 274 274 273 273 273 273 272 272 272 273 274 275 276 277 279 280 281 281 281 282 282 281 282 282 282 282
290 290 290 290 290 290 289 289 289 289 289 289 289 289 287 285 285 285 283 281 280 279 278 278 277 277 277 277 277 277 277 276 276 276 276 276 276 276 276 275 275 275 275 275 274 274 274 274 274 274 274 274 274 274 274 273 273 273 273 272 272 272 271 271 270 270 270 271 271 272 273 274 275 276 277 279 280 281 281 281 281 282 282 282 282 282
289 289 289 289 289 289 289 289 289 289 289 289 288 286 281 279 279 281 279 277 276 276 275 275 275 275 275 275 275 275 275 275 274 274 274 274 274 274 274 273 273 273 273 273 273 273 273 273 273 273 272 272 272 272 272 271 271 271 271 270 270 269 269 269 269 269 269 270 270 271 272 273 274 275 275 277 278 279 280 280 280 281 281 282 282 282
Wind_Speed
3 3 4 6 10 15 16 12 14 15 7 4 3 5 7 8 9 9 12 10 0 3 8 11 19 17 15 15 12 14 13 10 15 20 19 15 13 12 13 15 15 16 18 17 22 25 22 21 23 24 26 27 29 32 34 36 38 40 40 40 42 43 43 42 42 42 43 43 40 39 41 45 46 46 46 47 48 49 49 49 48 49 48 46 46 46
2 6 8 12 17 14 9 7 10 10 6 5 5 7 7 7 11 10 11 12 1 1 7 8 17 20 14 14 12 12 14 16 18 18 19 19 17 14 13 16 17 16 15 13 15 19 18 18 19 21 24 25 28 31 35 37 40 40 40 42 43 42 42 44 46 46 47 48 47 46 48 49 48 48 49 50 52 52 51 50 50 49 49 48 48 47
3 6 11 16 14 5 2 4 5 6 6 8 5 6 7 4 9 9 8 10 3 1 7 8 16 18 13 14 14 15 17 18 19 16 14 16 18 18 14 14 16 15 13 12 13 13 12 14 18 20 23 26 29 31 33 37 38 37 40 43 42 41 43 46 47 47 48 48 48 45 44 43 41 43 47 48 49 50 50 50 50 49 49 49 48 48
5 6 13 16 8 5 5 3 6 2 4 6 5 6 8 3 5 8 5 6 4 3 7 10 16 15 11 13 15 18 19 16 16 14 13 15 17 21 20 15 12 13 14 15 14 11 8 10 14 16 20 24 26 27 30 34 35 37 41 44 43 43 45 46 47 48 46 42 41 38 34 34 34 35 39 40 41 45 46 47 49 50 50 49 49 48
10 7 7 8 6 8 9 3 3 3 6 7 8 7 10 9 10 10 5 7 7 5 5 7 14 13 7 9 10 10 10 11 12 14 15 15 17 20 20 15 10 11 14 14 14 14 9 6 9 12 16 19 22 27 30 33 36 38 41 43 43 43 43 44 45 45 41 37 36 34 28 27 28 28 30 34 37 39 42 45 49 50 49 49 49 49
10 5 2 2 5 7 7 6 6 6 8 8 6 10 16 15 11 10 8 7 6 5 4 5 8 10 2 6 7 5 2 6 8 11 16 17 18 17 12 11 11 11 10 10 13 13 8 6 8 11 14 17 22 28 31 33 35 38 39 39 40 41 42 43 43 43 41 39 39 38 33 30 30 28 32 40 41 41 45 48 48 49 50 50 50 50
5 4 3 5 6 6 5 6 7 9 7 9 5 11 15 12 9 10 9 4 2 5 3 4 1 10 7 3 8 7 3 8 9 10 16 18 15 8 4 7 10 10 7 7 9 8 7 6 7 9 14 19 24 28 29 30 32 35 35 36 39 41 41 41 42 43 43 42 42 43 41 39 37 36 40 45 45 46 48 47 46 48 50 51 51 51
4 3 3 5 5 6 5 5 7 10 6 7 4 7 9 8 9 7 5 4 4 4 3 2 4 6 13 5 5 7 6 8 11 13 17 15 8 7 6 8 9 10 8 5 6 6 6 7 7 10 16 20 23 25 25 26 30 33 34 36 38 39 40 41 42 44 45 45 44 44 43 41 42 42 41 41 42 43 45 44 45 47 48 49 50 50
4 4 5 6 5 4 6 6 7 12 7 6 2 5 5 5 5 4 4 5 1 4 4 4 6 2 12 6 3 1 4 7 13 16 17 12 8 8 8 9 10 9 4 4 4 6 6 8 9 13 17 19 19 20 21 24 27 29 31 33 34 37 39 39 41 44 46 47 45 44 43 41 43 42 36 34 36 38 39 41 42 43 44 47 48 49
0 4 6 8 5 6 7 4 8 13 8 4 6 5 4 4 2 4 4 3 3 4 5 6 6 2 11 7 4 3 2 7 11 12 12 9 8 9 9 10 10 5 5 3 2 6 7 9 11 13 15 16 15 15 18 20 22 23 26 28 31 35 36 37 40 43 46 46 44 43 44 42 40 36 30 29 32 34 36 38 38 39 41 43 46 48
3 1 2 5 5 6 5 3 4 9 6 3 5 4 5 4 3 4 1 4 2 6 6 10 12 6 7 6 4 3 4 6 6 7 9 8 7 10 8 7 7 6 5 4 5 7 7 9 13 13 13 13 11 10 13 15 17 19 22 26 29 31 33 36 39 42 44 45 45 45 45 44 39 34 31 30 32 35 36 36 37 38 40 42 44 46
3 1 2 3 2 4 5 3 1 1 4 4 3 3 3 3 3 4 4 3 2 8 5 10 13 10 9 6 2 4 6 5 6 6 9 9 8 8 6 6 6 5 5 6 6 7 7 9 11 12 12 11 8 8 10 12 14 17 20 24 27 29 30 33 36 40 43 44 46 46 45 43 40 36 36 36 35 37 38 38 37 38 39 40 41 43
3 5 4 2 1 4 5 2 3 3 3 4 3 3 1 4 3 2 3 0 4 8 5 6 7 6 11 8 5 10 12 9 8 7 8 9 8 8 7 8 7 6 6 6 6 7 6 7 8 8 10 9 7 8 9 10 12 15 19 23 26 29 30 31 33 37 41 43 46 46 43 41 40 38 39 39 38 38 40 40 39 40 40 39 41 45
4 4 2 1 3 4 7 6 3 2 4 6 6 5 5 2 2 4 3 2 5 6 3 3 3 3 7 6 7 13 15 11 7 7 9 8 7 7 8 8 7 7 6 5 5 6 6 6 6 6 8 9 8 8 8 10 12 14 17 21 25 28 29 31 33 35 39 43 45 44 42 41 40 39 40 40 39 39 41 41 42 43 44 44 47 50
4 7 3 5 2 3 9 8 4 3 5 6 5 5 5 5 4 5 4 5 6 4 2 1 3 4 3 3 7 11 9 7 4 5 4 4 6 6 6 8 7 7 6 5 5 5 6 6 6 6 8 8 8 8 8 9 11 13 16 20 25 27 29 32 34 36 39 42 41 40 41 41 41 42 41 41 41 41 42 43 43 44 45 47 49 49
4 8 5 3 2 5 7 4 2 4 1 3 3 3 3 5 4 3 4 4 3 2 1 2 4 5 4 6 8 7 8 8 6 4 5 5 6 4 5 7 6 6 6 7 6 6 7 7 7 6 7 7 8 8 8 9 10 13 15 19 24 28 30 32 36 39 40 39 37 38 40 41 41 41 41 41 42 43 44 44 44 44 45 46 46 46
4 6 3 1 2 4 6 3 2 2 3 1 3 3 4 3 4 2 5 1 1 4 5 5 6 6 5 8 6 3 5 6 6 6 4 7 6 4 5 7 5 6 7 8 7 7 7 7 7 7 5 5 7 8 9 10 10 12 14 18 22 26 29 32 36 38 37 37 36 38 39 40 40 42 44 45 44 42 40 40 42 43 44 45 45 45
4 6 4 4 4 3 3 2 1 1 3 4 3 4 2 1 2 1 2 1 2 7 6 6 12 10 6 8 5 6 9 8 5 5 5 6 5 5 7 5 5 6 7 7 7 7 7 6 8 8 3 4 8 10 12 12 12 12 14 16 20 24 28 32 34 34 35 36 37 38 39 39 40 42 43 44 42 40 38 38 40 42 43 45 45 45
2 4 5 3 3 3 2 2 2 3 1 4 3 2 1 2 3 1 2 2 5 8 5 6 12 10 7 10 9 10 14 12 6 4 6 6 6 6 6 6 6 7 6 7 7 6 5 5 6 7 11 13 13 14 16 17 16 15 16 17 20 23 27 28 29 30 32 34 35 36 37 38 39 40 40 40 39 38 39 40 41 41 42 42 42 43
2 2 4 1 1 2 3 1 3 2 2 0 1 2 1 2 3 2 1 1 4 8 7 7 9 7 7 10 11 11 11 9 7 5 6 7 8 7 5 6 7 7 7 7 7 8 8 8 11 18 22 20 18 20 23 23 20 20 20 21 21 23 24 25 26 28 31 33 34 35 36 37 39 40 39 37 35 37 40 42 41 42 42 41 41 41
2 3 5 2 2 3 2 4 6 5 3 1 1 3 2 2 1 2 2 1 3 7 7 7 8 7 6 7 9 8 6 5 7 7 8 8 6 6 5 5 6 7 8 8 9 11 14 15 19 24 26 24 23 26 28 28 26 24 23 23 23 23 23 23 25 28 31 33 34 35 37 38 39 39 39 37 36 37 39 40 42 43 42 42 42 43
1 3 5 4 5 6 8 7 7 9 7 5 5 6 7 6 3 4 6 4 4 6 7 8 9 7 3 6 9 8 5 5 7 8 9 8 7 7 6 6 6 6 8 12 13 14 15 14 16 23 28 27 26 27 27 28 28 28 27 26 24 24 24 24 25 27 30 31 32 35 38 38 37 37 37 37 38 39 39 40 42 43 42 43 44 44
2 3 5 8 8 11 13 7 5 8 5 3 4 5 6 6 5 6 9 5 5 7 6 8 10 6 4 7 12 14 14 10 6 7 9 8 8 8 9 10 10 11 13 14 13 12 12 11 15 22 27 30 30 30 30 29 28 29 29 28 26 25 26 26 25 25 27 29 32 34 35 35 35 34 34 36 38 40 41 42 42 42 43 45 44 43
1 2 4 8 7 8 11 6 1 3 3 0 3 4 4 4 4 7 7 3 4 6 6 8 9 4 4 8 11 13 15 13 6 4 6 7 8 11 13 14 14 13 13 13 12 11 10 12 17 19 21 24 27 29 31 32 32 32 32 31 30 28 29 28 26 25 25 28 31 33 32 33 33 33 34 36 38 41 43 43 41 41 42 43 42 42
2 1 2 4 4 5 7 6 2 2 1 1 4 4 5 5 8 9 6 4 5 6 9 11 9 4 3 5 8 8 11 13 9 7 10 10 10 12 12 13 12 12 13 13 13 13 13 14 14 14 16 20 24 26 28 30 32 33 33 33 33 31 31 30 28 27 26 27 30 31 32 33 32 32 35 37 39 42 43 42 41 40 39 39 39 41
2 2 3 4 6 6 8 7 3 1 1 2 2 4 6 7 9 9 7 7 7 8 11 11 9 8 5 5 7 8 9 11 10 13 12 10 10 10 10 11 11 11 13 14 14 14 13 13 12 13 16 20 22 25 26 27 29 31 31 33 34 33 33 32 31 29 27 27 28 30 31 31 31 33 36 39 41 42 40 39 39 38 37 38 39 39
1 2 5 8 10 9 10 9 6 6 6 6 7 9 9 8 8 7 6 7 9 9 10 11 11 12 11 9 8 9 11 12 12 12 10 9 10 9 8 9 9 10 11 12 12 13 13 14 14 14 17 21 23 25 26 26 28 29 30 31 33 34 34 34 32 30 28 27 27 29 29 30 31 34 37 39 40 40 38 38 38 38 39 39 40 40
1 3 5 9 12 10 10 11 11 11 11 10 11 12 13 12 11 10 11 11 11 10 9 9 11 15 15 9 6 8 9 10 11 11 9 8 8 8 8 10 11 11 11 11 12 14 14 14 14 14 16 21 24 26 26 27 28 29 29 29 31 32 33 34 34 31 28 27 27 27 29 30 32 34 36 37 37 37 38 38 38 40 40 39 40 42
0 4 5 9 11 8 9 11 11 11 10 10 10 12 13 14 14 15 17 16 13 11 11 11 14 19 16 7 5 6 6 7 8 8 7 6 7 8 9 10 11 12 12 12 12 12 12 12 12 12 15 20 23 24 25 26 27 29 30 30 31 31 33 33 33 32 30 27 25 27 29 31 31 32 34 35 35 36 37 38 38 39 39 40 42 43
2 4 5 7 8 9 10 11 11 12 12 11 11 12 12 14 16 18 17 15 15 17 18 17 19 18 8 4 5 5 5 5 4 4 6 7 8 9 9 9 10 10 11 11 11 10 9 10 11 11 13 17 21 23 23 23 25 27 28 30 30 30 32 32 31 31 31 29 28 28 27 28 29 30 31 33 34 36 36 37 37 37 38 40 41 41
3 4 6 7 8 11 13 12 11 12 13 14 14 13 14 17 19 18 16 15 16 18 16 16 17 10 1 5 4 6 6 6 5 6 7 7 8 8 9 8 7 8 9 10 10 10 9 9 10 10 12 15 19 22 22 23 24 25 26 28 29 29 30 30 29 29 29 30 31 31 29 28 28 28 29 30 32 34 35 36 36 36 38 38 39 40
3 4 6 7 7 10 13 14 15 13 12 14 15 16 19 19 17 16 15 13 12 11 12 12 10 4 2 3 3 4 6 7 8 7 6 6 7 8 9 8 7 7 7 8 8 10 11 11 11 11 12 16 20 22 23 24 24 25 27 28 28 28 28 28 28 28 28 29 30 31 31 30 28 27 28 29 30 32 34 34 34 35 36 37 38 39
4 4 5 6 7 9 12 14 13 10 9 11 12 13 16 16 14 15 12 7 5 4 5 6 3 1 3 4 4 5 6 7 7 7 5 3 5 6 7 7 7 6 6 7 7 8 9 10 11 13 15 18 20 22 24 24 24 25 28 29 28 27 27 26 26 27 28 30 30 30 30 30 29 28 27 27 29 31 32 32 33 34 35 36 37 37
5 5 4 5 5 9 11 9 7 7 10 10 5 2 4 5 5 6 3 4 4 2 2 1 1 0 2 3 4 6 6 5 6 7 5 2 3 5 6 6 7 6 6 6 6 7 7 8 12 16 19 20 21 23 24 24 23 26 28 29 28 27 26 25 24 25 27 29 31 32 31 30 29 28 27 26 26 27 28 29 31 33 33 33 33 34
6 5 3 3 4 6 6 6 6 8 7 4 2 2 2 4 6 5 4 3 2 3 5 2 3 3 2 4 5 6 6 5 6 8 7 3 1 3 5 6 6 7 7 7 7 7 8 9 12 16 20 22 24 25 25 24 25 27 29 29 29 29 28 26 24 25 26 28 30 32 33 32 31 29 28 27 25 23 24 26 29 31 31 30 31 33
8 6 2 2 3 3 2 3 6 5 2 2 3 1 2 3 6 5 3 1 1 2 3 1 3 5 4 6 6 6 7 6 5 7 7 4 2 2 4 5 6 6 6 7 7 8 10 12 13 16 20 22 24 25 25 25 27 27 28 29 29 29 30 28 26 27 28 29 29 31 32 32 32 32 30 29 26 23 23 24 25 27 27 28 29 30
9 6 3 3 5 4 4 6 6 6 7 6 5 1 1 1 2 1 0 2 3 3 3 3 4 6 7 6 6 7 6 5 5 4 5 5 5 6 6 6 7 7 8 9 11 13 15 17 17 18 20 22 22 24 24 26 27 27 27 27 27 28 28 27 26 27 29 30 31 31 31 31 31 32 32 30 28 26 25 24 24 24 24 25 26 27
9 7 5 5 5 5 5 6 5 7 7 3 4 5 3 3 4 2 2 3 3 2 4 6 7 8 7 6 7 6 3 4 5 4 4 7 6 7 7 7 8 10 11 12 14 16 17 18 18 19 20 20 21 23 24 25 27 26 25 25 24 25 25 24 24 27 28 30 31 32 32 31 30 30 30 30 29 27 26 25 23 23 22 23 25 25
7 8 7 6 5 5 6 5 5 6 4 2 5 7 5 4 4 3 2 2 2 3 5 7 8 8 7 7 7 4 1 3 6 5 4 7 7 7 7 7 8 11 13 15 15 16 18 19 19 19 20 19 20 22 23 24 25 23 23 23 23 22 22 21 23 26 28 30 32 32 32 31 30 29 28 28 28 27 26 25 23 22 22 22 23 24
1 3 4 5 5 6 7 6 4 4 3 4 6 6 5 3 4 0 6 3 2 3 6 8 8 8 7 7 6 4 4 5 6 6 5 5 6 7 7 8 8 9 12 15 17 18 19 19 18 18 18 18 19 21 22 22 22 21 22 24 23 21 21 21 23 25 28 29 31 31 32 31 30 29 28 27 27 26 24 23 22 22 21 21 22 23
1 1 2 4 6 8 8 8 5 4 4 5 6 6 4 2 2 3 8 4 2 5 5 8 8 8 7 7 6 5 7 8 8 9 8 6 5 6 8 11 12 12 14 16 17 19 19 18 18 19 19 20 20 21 21 21 20 20 22 23 22 22 23 24 25 26 27 27 28 30 31 31 30 30 29 28 26 25 23 21 20 21 21 21 21 21
2 1 1 3 4 5 5 6 5 5 3 2 3 4 2 1 2 5 5 2 5 7 5 6 7 8 7 8 8 7 9 10 10 10 9 8 8 7 7 9 10 12 15 17 18 18 17 17 19 20 21 22 21 21 21 21 20 20 21 21 22 25 26 27 27 28 27 27 27 29 30 30 30 30 30 29 27 25 24 22 20 20 20 20 20 21
3 2 3 3 3 2 3 4 5 5 3 2 0 3 1 3 5 5 4 7 7 6 6 5 6 6 7 9 9 9 10 11 11 10 9 9 9 7 6 7 8 11 14 16 18 19 18 17 19 20 22 22 21 21 22 20 20 21 21 21 24 26 26 27 29 29 28 27 28 29 30 29 29 29 28 29 27 25 24 23 21 20 19 20 20 20
4 4 5 4 3 3 4 5 5 4 3 2 1 2 4 5 6 6 8 10 8 5 5 5 5 7 9 9 9 10 10 11 11 10 8 8 8 7 6 7 9 12 14 16 19 21 19 18 19 22 23 23 23 24 24 21 21 22 23 25 27 27 26 28 29 29 29 29 29 30 30 28 28 28 27 27 26 23 23 22 21 19 19 20 20 20
4 5 4 5 5 5 5 6 6 2 1 4 4 6 9 11 12 10 8 7 7 5 4 5 7 9 9 9 9 9 9 10 10 8 7 6 7 7 8 9 11 14 16 18 22 23 21 19 20 22 25 27 27 26 25 23 22 23 26 29 28 26 26 28 29 28 29 30 30 30 30 29 29 28 27 26 24 23 23 23 20 19 20 20 20 20
6 5 2 4 8 7 7 10 9 6 7 10 10 10 12 12 11 10 6 5 6 6 6 6 7 8 8 8 7 7 7 8 8 7 6 6 7 9 10 11 14 16 18 20 23 25 23 21 22 23 25 29 31 29 27 25 24 24 29 31 29 27 26 27 28 29 30 30 30 30 31 31 32 30 28 26 25 24 25 23 21 21 20 19 20 20
9 7 5 7 10 9 9 12 10 7 10 12 11 11 12 11 10 7 5 5 6 7 7 6 5 5 5 4 3 4 6 6 7 8 8 8 9 12 12 12 14 17 19 21 23 25 24 22 21 22 23 27 33 33 30 28 28 28 30 32 31 28 26 27 28 29 29 30 31 32 32 32 32 31 29 26 25 25 25 24 24 23 21 20 20 20
5 4 5 9 11 10 12 14 10 8 11 12 10 10 11 11 11 10 7 5 5 5 5 4 3 3 4 4 4 4 6 7 6 7 8 8 10 11 11 12 14 17 21 25 26 25 23 21 22 23 23 27 32 34 32 31 32 32 32 32 31 28 27 28 28 28 30 32 33 33 33 32 31 31 29 27 25 25 25 25 25 25 25 26 25 23
3 2 4 5 7 10 13 13 11 9 11 11 11 10 8 8 9 8 6 5 5 5 6 6 4 3 3 4 4 4 6 8 7 7 8 9 11 11 12 14 18 20 24 27 27 26 24 23 24 25 26 30 33 34 33 34 34 35 34 32 29 26 27 29 29 30 33 35 34 34 33 31 30 29 28 27 26 26 28 28 28 28 30 31 31 30
4 7 7 5 6 10 11 11 10 8 8 10 9 5 2 3 4 4 4 5 6 6 7 8 8 6 4 3 3 4 6 9 9 9 9 10 11 13 14 16 20 23 26 28 28 27 26 26 27 27 29 33 35 34 33 35 36 37 37 33 29 27 29 31 31 32 34 34 33 32 31 29 28 28 28 27 27 26 28 30 30 31 33 33 34 35
7 9 9 7 9 11 13 13 10 7 7 9 5 2 4 4 4 4 4 5 5 4 5 6 8 9 9 7 5 4 6 8 10 10 10 11 14 18 20 20 20 22 27 29 27 27 28 29 29 29 30 34 35 34 35 37 40 42 40 35 32 32 33 33 31 31 32 32 31 31 30 29 28 29 28 29 28 27 25 26 28 30 33 35 34 33
Wind_Direction
140 165 179 195 209 221 226 210 214 233 247 266 262 255 253 261 264 254 265 270 196 288 257 251 268 271 267 267 262 269 271 256 260 270 273 269 265 259 256 258 258 256 256 260 267 269 264 256 251 246 243 239 234 231 228 224 222 220 217 215 216 215 211 207 204 202 202 202 201 202 207 211 213 214 215 217 218 219 220 220 220 219 219 218 217 216
140 196 214 216 217 225 230 211 222 246 283 282 255 267 264 252 266 266 273 279 275 247 259 248 271 273 267 269 264 261 267 261 253 255 266 273 273 265 255 257 259 257 262 270 271 269 264 258 251 243 237 231 228 226 224 222 221 219 215 215 216 212 208 207 206 203 203 204 202 203 207 210 210 210 211 214 216 218 219 219 218 219 218 218 217 216
221 221 231 228 227 258 330 137 184 224 244 254 252 277 275 254 278 276 265 284 320 223 277 282 275 273 265 261 255 248 248 251 253 251 256 268 272 272 262 254 259 265 274 274 268 269 263 253 246 238 232 229 229 228 225 223 221 216 214 215 215 211 208 208 207 205 206 206 206 206 208 209 208 210 212 213 215 216 216 217 217 218 218 218 218 217
228 234 235 235 231 259 273 109 115 204 239 234 225 255 269 253 274 270 265 316 328 236 275 292 284 279 262 251 246 244 246 251 262 264 255 251 257 265 262 255 261 271 275 276 275 278 269 252 246 237 234 234 231 229 226 222 217 214 215 215 213 211 210 209 208 207 207 206 206 207 210 210 208 211 213 213 216 215 215 215 216 217 217 217 218 217
239 241 230 228 209 214 245 242 150 243 265 230 209 226 256 251 247 255 287 337 320 284 300 306 296 288 236 222 241 248 253 256 262 264 261 256 248 252 260 266 267 263 268 278 283 284 285 280 274 260 250 244 235 230 228 224 219 217 217 215 212 211 210 209 208 206 204 202 200 201 204 205 205 209 209 210 214 213 213 214 215 216 216 217 218 218
251 246 146 162 199 197 220 244 209 209 255 258 212 211 239 252 256 264 293 338 334 306 338 9 313 295 197 161 237 277 292 254 251 250 254 256 250 246 256 271 268 258 260 270 275 285 313 338 314 286 266 252 241 238 236 231 225 222 219 216 213 211 210 209 207 203 200 199 197 195 193 192 194 199 205 208 209 209 211 214 214 215 215 216 217 218
253 237 192 196 199 175 186 249 222 190 241 277 232 208 230 248 259 264 276 305 292 261 289 62 346 286 295 174 223 245 234 248 252 247 247 249 256 271 271 261 269 272 266 261 273 304 335 327 308 283 265 253 248 249 246 237 230 225 221 217 213 211 210 208 205 202 200 198 198 197 197 196 196 200 207 210 209 209 211 212 213 214 215 215 216 216
208 212 217 203 171 146 176 246 215 172 203 270 232 195 209 225 237 240 238 229 242 276 288 135 133 280 287 267 211 216 208 253 265 257 255 256 282 323 290 260 266 271 279 291 303 327 317 290 281 269 265 261 260 260 253 241 235 229 223 219 215 211 210 207 205 202 201 200 199 200 201 203 205 207 210 210 208 210 210 209 211 213 213 214 214 215
157 194 205 170 131 155 201 221 175 155 191 251 169 149 170 196 217 172 171 212 260 336 292 199 140 249 275 278 59 167 202 247 259 254 259 270 298 302 282 274 267 268 319 11 329 310 290 274 270 269 273 274 273 269 259 249 243 235 227 221 216 212 210 207 204 202 203 203 202 201 203 206 210 212 212 209 207 208 208 208 209 210 211 212 212 214
189 219 192 153 148 205 211 196 161 163 198 223 117 100 80 78 72 105 145 147 73 311 257 194 161 205 275 278 72 69 200 237 254 258 264 272 281 275 269 272 278 310 20 30 293 277 268 271 283 288 291 293 289 278 267 255 246 238 231 224 218 214 210 207 205 204 203 204 203 204 205 208 211 210 209 208 206 205 206 206 207 207 209 210 211 212
266 328 144 163 183 195 171 128 175 177 177 152 115 72 31 35 41 61 81 95 84 278 237 181 182 188 273 279 134 164 218 220 249 279 281 282 280 274 273 287 312 346 348 320 298 277 275 293 306 309 306 308 308 290 272 257 245 238 231 225 222 218 213 209 207 205 205 204 205 207 208 209 210 206 203 203 203 203 203 204 204 206 208 210 210 211
269 208 214 238 191 134 118 98 333 126 129 130 115 79 12 329 13 33 355 58 169 264 241 181 184 189 235 255 199 262 270 235 232 254 273 283 284 282 301 323 321 312 296 301 303 297 311 324 325 325 320 321 320 298 279 262 246 236 228 222 221 220 216 213 209 207 206 206 207 210 210 210 209 205 203 203 203 201 201 203 203 204 206 208 209 210
273 215 216 288 233 154 137 138 343 8 109 133 128 129 219 308 342 344 315 115 209 260 262 183 176 206 244 260 276 276 277 258 231 226 251 271 286 300 319 318 307 302 298 301 309 318 328 328 328 324 320 325 321 304 287 264 249 237 228 221 218 218 217 215 214 211 209 209 211 212 211 211 210 208 207 207 206 204 204 203 202 203 203 204 206 209
288 259 165 128 265 189 156 178 240 249 172 163 157 161 175 195 262 257 253 261 254 270 278 186 172 256 277 281 246 243 258 265 246 230 240 253 275 293 301 300 303 305 304 319 330 322 315 315 317 310 316 323 318 310 292 268 253 240 231 223 220 219 217 215 215 215 214 215 215 214 213 213 211 210 211 210 209 208 207 205 205 205 204 204 208 211
265 288 218 170 253 192 181 203 203 140 161 184 166 144 172 186 200 224 228 251 262 278 306 196 186 218 239 262 235 231 256 286 276 256 271 271 259 271 291 293 298 302 311 329 323 308 304 299 293 298 313 317 318 317 298 276 257 243 236 230 225 222 218 215 215 215 218 219 218 217 216 215 213 212 213 213 213 212 211 209 208 208 207 209 212 213
222 267 254 217 234 172 193 236 70 94 183 227 126 110 217 204 183 237 252 236 245 303 289 213 218 223 226 261 263 260 275 284 283 304 346 310 275 301 309 286 292 313 320 322 321 322 311 292 278 286 304 315 324 325 306 286 264 248 243 237 232 228 223 218 217 217 218 221 221 221 220 218 216 214 214 215 216 215 214 212 210 210 211 212 214 214
229 259 262 233 246 184 193 233 71 145 218 163 116 193 231 173 145 251 285 303 66 271 254 240 258 278 295 284 290 334 310 297 301 305 296 275 286 318 282 267 303 326 314 313 319 314 296 289 277 261 264 308 328 328 316 302 285 266 254 243 237 233 228 224 222 220 218 219 222 224 224 222 220 217 216 216 217 217 216 214 213 213 214 215 215 215
251 268 243 189 229 240 176 158 360 220 163 132 184 230 230 129 132 167 275 327 274 257 254 254 266 283 298 283 308 350 317 310 322 311 292 274 276 271 262 280 320 304 291 301 306 290 268 261 264 255 250 345 345 338 328 322 311 292 275 259 246 240 236 231 227 223 221 220 222 224 225 225 225 223 222 220 218 217 217 217 216 215 216 216 216 215
291 280 262 175 208 279 63 95 291 297 155 156 217 266 101 207 247 188 182 229 247 255 253 239 256 272 269 263 280 288 283 288 291 294 304 281 251 253 274 304 307 292 297 311 307 293 268 252 285 341 3 358 356 353 345 340 331 314 299 280 261 253 248 241 232 228 227 226 225 226 227 227 228 228 229 227 222 218 217 218 218 217 217 218 217 215
358 273 274 88 144 311 13 112 212 272 316 131 282 324 74 183 230 233 193 187 242 256 257 239 241 250 249 259 268 260 259 275 281 281 285 262 244 258 282 299 311 318 319 313 312 323 338 345 354 9 11 6 8 9 3 355 341 326 315 298 280 268 258 248 239 234 232 231 230 230 230 229 230 231 231 232 229 224 221 220 219 219 219 219 218 216
23 246 254 277 282 300 289 207 185 194 226 205 216 251 241 223 261 281 251 185 239 258 260 254 245 235 240 263 264 247 225 252 281 287 281 270 263 270 276 287 305 314 316 327 345 356 3 4 0 4 10 15 19 16 12 5 353 342 329 313 299 284 270 257 248 241 237 235 233 233 233 232 232 231 231 231 231 231 228 224 222 222 221 220 220 218
171 231 244 260 265 261 248 221 190 202 212 207 210 213 223 229 234 270 254 207 215 247 247 257 259 245 251 293 290 279 260 260 283 293 294 296 294 286 288 298 310 327 349 3 11 11 10 7 2 1 5 11 15 16 16 12 6 359 348 335 320 301 287 276 264 253 246 241 239 238 238 237 236 234 232 230 231 232 232 230 226 224 222 221 221 219
175 176 223 244 249 258 265 257 191 197 202 204 217 206 214 210 186 226 249 238 229 241 242 255 262 248 233 275 287 286 285 286 282 277 284 289 293 310 333 350 3 14 20 19 16 14 11 6 6 7 7 6 7 8 9 9 10 8 2 354 341 324 310 297 283 269 258 250 246 244 243 242 240 238 236 233 232 232 232 233 231 227 224 223 221 219
360 136 234 254 258 269 280 287 128 128 106 119 240 213 204 213 217 235 249 269 263 256 259 262 262 242 211 247 262 272 284 291 281 264 296 317 336 354 6 15 20 19 19 18 14 12 10 9 11 11 9 5 3 4 4 4 5 7 7 3 355 344 331 318 303 286 271 260 255 251 248 246 243 241 239 237 235 235 234 234 232 230 228 226 222 219
293 217 247 278 279 285 293 294 332 41 66 225 250 245 234 250 269 275 282 295 273 244 244 258 264 254 238 260 270 276 285 291 309 17 33 26 18 15 13 15 16 13 12 13 12 11 11 12 12 8 6 4 1 1 3 3 4 4 5 4 360 354 347 338 325 307 288 274 265 259 253 250 246 243 241 240 239 239 237 235 233 232 231 228 226 223
273 245 243 260 256 259 274 272 278 342 222 225 268 265 257 247 249 264 276 270 261 237 234 250 268 270 274 285 285 296 307 312 348 33 45 40 31 24 16 10 8 10 10 8 9 11 10 11 10 6 4 3 1 1 1 2 3 3 3 3 1 358 354 349 340 326 307 290 277 267 261 255 250 246 244 242 242 241 240 238 236 234 232 230 228 226
206 266 254 255 255 255 266 274 297 311 287 280 286 282 283 275 256 261 268 260 268 269 254 256 271 277 278 285 303 336 348 348 6 27 34 33 28 22 16 10 9 11 9 6 7 8 8 7 6 4 1 359 359 0 1 1 2 1 1 1 0 359 357 354 350 340 324 307 291 278 270 263 257 253 249 246 245 243 241 240 238 235 233 230 228 226
133 275 264 264 267 269 281 291 302 303 292 286 287 284 282 280 273 267 263 261 272 276 266 268 281 283 282 295 350 14 360 352 4 12 17 27 23 14 13 11 10 10 8 8 7 6 6 4 360 358 357 356 356 357 358 359 359 359 358 358 358 359 358 357 356 352 341 325 307 293 284 276 268 261 256 252 249 246 244 241 238 236 233 230 227 226
137 267 257 263 275 288 303 306 304 299 293 289 286 282 279 277 273 266 264 269 273 272 275 285 285 282 286 311 19 27 360 350 358 357 359 13 16 16 17 13 10 6 3 5 5 3 1 357 355 354 351 350 352 353 355 355 355 355 355 355 356 357 358 359 360 359 355 344 327 312 301 291 280 271 264 258 253 249 246 243 240 237 233 230 228 227
215 260 266 274 292 302 295 289 288 287 288 286 280 276 276 274 270 268 270 273 269 265 270 276 275 275 289 5 4 356 352 334 331 344 1 12 14 15 16 14 12 4 358 358 357 356 356 351 348 347 345 347 348 349 349 350 350 350 350 350 352 354 356 359 1 3 3 359 349 337 324 311 297 285 273 265 258 254 250 246 242 238 234 231 229 226
246 277 304 311 307 296 287 280 275 275 278 281 281 278 273 271 269 271 272 269 266 267 269 270 270 272 45 55 350 338 346 341 347 358 3 9 8 8 13 12 5 358 355 351 347 346 348 346 344 343 343 343 342 343 344 344 344 345 345 346 348 350 353 357 0 3 3 1 358 354 347 336 321 306 290 276 266 260 255 250 245 239 235 231 228 226
278 283 303 303 285 279 284 284 283 285 286 280 277 271 267 265 265 265 264 266 271 279 284 280 275 279 29 15 345 344 348 352 354 347 347 359 1 2 5 1 352 349 347 344 342 343 341 341 341 339 337 337 337 339 340 339 340 342 342 342 343 345 350 355 358 360 360 360 359 357 355 349 340 327 312 295 282 270 262 255 248 241 236 231 227 224
246 261 280 278 274 275 274 279 293 306 296 275 263 258 260 262 266 267 271 297 321 304 293 291 289 341 318 322 347 349 345 348 340 327 323 334 347 356 357 348 339 332 330 331 335 337 335 334 333 331 331 332 333 333 334 335 337 338 338 338 338 342 347 352 356 357 357 357 356 356 354 352 347 339 328 315 298 283 271 260 250 243 238 233 228 224
229 239 250 253 266 277 279 297 323 297 269 267 272 268 255 258 272 272 279 31 27 55 99 114 148 120 302 299 319 322 321 323 313 301 288 285 340 349 340 330 324 320 320 321 323 325 326 324 324 325 327 328 329 330 331 333 334 334 336 336 337 340 344 347 352 354 354 355 354 354 353 351 348 342 336 328 314 296 279 265 254 247 241 235 230 225
247 239 242 240 249 273 295 322 303 263 250 262 310 59 125 134 114 113 120 94 86 114 105 125 201 205 263 272 272 281 284 284 287 285 278 270 349 338 318 311 309 310 309 310 314 316 315 316 319 321 322 323 325 328 329 331 333 334 335 336 337 339 341 344 347 350 351 352 352 352 351 349 346 343 338 334 325 307 287 271 259 250 244 238 232 228
242 242 233 230 241 261 274 244 246 264 311 256 232 174 103 115 105 101 108 123 183 169 134 184 220 204 226 256 256 258 269 277 281 274 257 227 194 235 267 280 283 283 286 293 300 302 303 307 309 312 315 317 320 323 325 328 331 332 332 334 336 337 339 341 343 346 347 347 347 348 348 347 346 343 340 337 330 316 299 282 269 258 250 242 235 231
222 230 221 235 238 235 241 235 244 291 307 275 245 233 91 147 128 88 258 170 186 232 232 219 224 219 222 242 255 257 267 286 294 268 213 195 204 218 232 251 259 261 266 273 282 288 293 299 302 306 309 310 313 317 320 324 329 329 328 330 333 334 336 337 339 341 343 342 342 343 344 345 345 343 340 337 331 322 311 297 282 269 258 247 240 235
207 212 214 238 242 235 257 264 261 276 283 262 239 244 237 215 199 213 259 184 163 275 253 209 215 229 225 236 256 262 274 299 302 284 201 201 220 226 231 243 248 252 258 267 278 286 291 296 300 304 305 304 305 311 317 321 325 325 323 324 327 329 330 332 334 336 337 336 337 338 339 341 342 341 339 336 331 324 315 304 291 277 264 252 245 239
193 210 215 234 248 247 260 268 260 266 272 198 218 237 247 240 201 192 276 225 154 286 253 199 209 233 229 236 248 239 225 282 292 287 219 208 226 237 240 247 248 250 259 269 279 284 289 293 296 298 298 296 298 306 314 318 320 319 317 317 319 320 321 324 329 331 332 331 332 333 334 336 338 338 337 335 330 325 317 307 296 282 268 256 248 243
134 217 210 222 245 251 257 263 261 270 259 198 209 238 250 214 149 218 289 275 148 245 228 192 213 236 228 235 239 205 207 247 271 279 258 227 232 244 250 254 253 254 264 276 282 285 289 292 294 293 290 288 293 302 309 312 314 313 311 312 313 312 312 317 322 325 326 326 327 328 329 331 333 334 334 332 328 324 317 307 296 283 270 259 250 244
318 258 193 209 235 243 250 259 263 266 250 212 211 237 244 160 98 278 272 284 353 287 230 188 213 238 232 233 229 207 222 237 248 265 273 268 256 251 252 256 257 264 274 280 284 287 289 290 291 290 286 287 292 299 304 307 307 304 305 308 306 304 308 314 319 322 323 322 322 323 324 326 328 330 331 329 327 322 315 307 295 283 272 261 251 242
250 263 256 227 231 238 240 252 271 280 260 179 208 247 227 147 250 252 247 302 318 290 246 200 216 236 239 239 234 230 240 248 252 261 271 276 269 255 254 260 263 273 282 285 288 289 289 289 290 288 286 289 292 296 301 303 298 296 298 298 295 299 308 314 318 320 320 319 318 318 319 320 323 326 327 326 324 319 313 307 297 285 274 263 251 241
228 248 270 229 213 256 255 242 261 270 244 138 79 298 238 180 228 260 298 310 292 259 238 236 238 243 249 248 245 246 250 255 260 261 262 269 271 264 259 265 271 277 282 285 287 289 290 290 289 287 287 289 292 295 298 297 292 292 293 289 291 300 308 313 316 318 317 316 315 314 313 314 317 320 321 321 318 312 305 300 292 282 273 263 252 243
229 226 252 241 223 240 241 231 229 229 223 198 183 253 248 245 266 290 301 299 289 252 229 248 262 261 258 251 248 253 257 258 261 262 262 269 279 284 279 277 280 283 286 287 288 291 293 291 289 290 290 291 292 295 296 294 292 292 291 290 296 304 310 312 315 315 312 311 310 308 308 309 311 312 312 312 309 301 293 289 282 273 266 258 249 243
228 211 232 256 252 229 217 238 246 235 285 272 255 256 267 277 287 290 281 276 276 260 244 266 278 274 265 254 250 254 258 261 263 269 275 282 289 294 293 291 288 288 291 293 293 295 297 294 292 293 293 292 293 293 292 292 292 291 290 294 300 306 309 311 312 309 307 306 305 303 304 305 306 305 304 302 298 289 282 278 270 261 256 250 244 241
258 246 237 274 274 265 254 258 265 285 290 277 272 274 275 278 285 287 272 249 255 262 269 275 276 275 272 268 262 258 262 274 287 296 302 306 303 298 295 293 292 293 294 294 295 297 300 299 296 294 293 294 294 293 292 292 291 287 289 295 300 305 308 309 307 304 303 302 301 302 304 304 303 301 298 294 289 282 276 270 261 254 249 242 238 239
255 239 230 253 263 266 265 262 259 261 266 267 270 276 278 279 282 279 258 246 259 272 283 290 291 290 294 304 309 297 294 306 318 313 310 311 303 297 297 296 295 296 294 292 293 296 299 299 295 292 291 291 292 294 295 295 293 290 291 295 298 303 307 306 303 301 300 300 300 301 301 300 298 297 295 290 283 276 271 264 255 248 243 236 233 235
247 197 209 240 247 249 258 264 262 253 257 264 269 271 276 279 278 274 271 278 293 305 312 329 356 1 353 359 1 335 314 311 308 302 302 302 295 293 295 294 294 296 295 293 294 296 297 295 291 290 289 288 289 292 294 294 293 293 293 294 298 304 307 303 300 300 299 299 298 298 296 294 293 292 290 286 279 271 264 259 250 243 240 237 234 231
246 208 207 228 248 255 259 266 272 270 267 268 265 263 269 277 280 286 306 339 5 5 352 351 2 13 359 342 339 331 310 301 297 295 293 291 290 291 292 293 295 296 294 294 295 296 296 293 290 290 289 288 289 292 293 292 292 292 293 295 300 306 306 302 301 301 298 297 295 292 291 290 289 288 286 284 278 270 263 258 251 246 246 246 243 239
235 247 243 234 253 262 262 261 264 268 270 271 272 279 332 336 323 336 1 14 21 12 355 342 333 331 329 321 329 327 305 295 297 299 296 291 290 291 293 295 297 296 294 295 297 297 294 291 291 290 289 289 291 293 293 292 292 292 293 296 302 305 303 301 301 297 293 290 289 287 287 287 286 285 284 281 278 273 269 265 258 252 250 251 250 247
227 240 246 243 249 259 264 263 261 259 264 274 291 50 61 27 21 35 26 6 359 358 355 342 329 324 320 316 317 310 293 292 299 301 298 293 291 291 293 295 294 292 294 296 298 298 296 295 293 291 289 290 293 294 294 293 293 292 293 297 300 301 299 297 295 291 286 284 283 282 283 284 283 282 282 279 276 273 270 267 264 257 252 251 250 248